Time,TemperatureF,DewpointF,PressureIn,WindDirection,WindDirectionDegrees,WindSpeedMPH,WindSpeedGustMPH,Humidity,HourlyPrecipIn,Conditions,Clouds,dailyrainin,SoftwareType,DateUTC
2013-01-03 00:03:00,16.2,13.0,29.91,SW,228,2.0,2.0,87,0.00,,---,0.00,VWS V14.01,2013-01-03 06:03:00,
2013-01-03 00:08:00,16.2,13.0,29.91,SW,227,7.0,7.0,87,0.00,,---,0.00,VWS V14.01,2013-01-03 06:08:00,
2013-01-03 00:13:00,16.2,13.0,29.91,WSW,244,3.0,7.0,87,0.00,,---,0.00,VWS V14.01,2013-01-03 06:13:00,
2013-01-03 00:18:00,16.2,13.0,29.91,SSW,195,3.0,7.0,87,0.00,,---,0.00,VWS V14.01,2013-01-03 06:18:00,
2013-01-03 00:23:00,16.2,13.0,29.91,WSW,240,2.0,7.0,87,0.00,,---,0.00,VWS V14.01,2013-01-03 06:23:00,
2013-01-03 00:28:00,16.2,13.0,29.91,WSW,247,2.0,10.0,87,0.00,,---,0.00,VWS V14.01,2013-01-03 06:28:00,
2013-01-03 00:33:00,16.0,12.6,29.91,WSW,252,12.0,12.0,86,0.00,,---,0.00,VWS V14.01,2013-01-03 06:33:00,
2013-01-03 00:38:00,15.8,12.4,29.91,SW,227,4.0,12.0,86,0.00,,---,0.00,VWS V14.01,2013-01-03 06:38:00,
2013-01-03 00:43:00,15.7,12.3,29.91,WSW,250,10.0,12.0,86,0.00,,---,0.00,VWS V14.01,2013-01-03 06:43:00,
2013-01-03 00:48:00,15.6,12.2,29.90,WSW,250,1.0,12.0,86,0.00,,---,0.00,VWS V14.01,2013-01-03 06:48:00,
2013-01-03 00:53:00,15.5,12.1,29.90,SW,227,3.0,12.0,86,0.00,,---,0.00,VWS V14.01,2013-01-03 06:53:00,
2013-01-03 00:58:00,15.5,12.1,29.90,West,259,3.0,12.0,86,0.00,,---,0.00,VWS V14.01,2013-01-03 06:58:00,
2013-01-03 01:03:00,15.4,12.0,29.90,SSW,197,6.0,8.0,86,0.00,,---,0.00,VWS V14.01,2013-01-03 07:03:00,
2013-01-03 01:09:00,15.4,12.0,29.90,WSW,239,4.0,8.0,86,0.00,,---,0.00,VWS V14.01,2013-01-03 07:09:00,
2013-01-03 01:14:00,15.3,12.1,29.90,WSW,255,4.0,8.0,87,0.00,,---,0.00,VWS V14.01,2013-01-03 07:14:00,
2013-01-03 01:19:00,15.3,12.1,29.90,SW,231,2.0,8.0,87,0.00,,---,0.00,VWS V14.01,2013-01-03 07:19:00,
2013-01-03 01:24:00,15.3,12.1,29.90,SW,230,5.0,8.0,87,0.00,,---,0.00,VWS V14.01,2013-01-03 07:24:00,
2013-01-03 01:29:00,15.2,12.0,29.91,WSW,254,4.0,10.0,87,0.00,,---,0.00,VWS V14.01,2013-01-03 07:29:00,
2013-01-03 01:34:00,15.2,12.0,29.91,WSW,245,11.0,11.0,87,0.00,,---,0.00,VWS V14.01,2013-01-03 07:34:00,
2013-01-03 01:39:00,15.1,11.9,29.92,SW,229,6.0,11.0,87,0.00,,---,0.00,VWS V14.01,2013-01-03 07:39:00,
2013-01-03 01:44:00,15.1,11.9,29.91,WSW,253,3.0,11.0,87,0.00,,---,0.00,VWS V14.01,2013-01-03 07:44:00,
2013-01-03 01:49:00,15.1,11.9,29.91,WSW,257,4.0,11.0,87,0.00,,---,0.00,VWS V14.01,2013-01-03 07:49:00,
2013-01-03 01:54:00,15.1,11.9,29.92,WSW,247,4.0,11.0,87,0.00,,---,0.00,VWS V14.01,2013-01-03 07:54:00,
2013-01-03 01:59:00,15.0,11.8,29.92,SW,227,4.0,11.0,87,0.00,,---,0.00,VWS V14.01,2013-01-03 07:59:00,
2013-01-03 02:04:00,15.0,11.8,29.92,SW,217,4.0,7.0,87,0.00,,---,0.00,VWS V14.01,2013-01-03 08:04:00,
2013-01-03 02:09:00,15.0,11.8,29.92,WSW,242,3.0,7.0,87,0.00,,---,0.00,VWS V14.01,2013-01-03 08:09:00,
2013-01-03 02:14:00,15.0,11.8,29.92,SSW,209,1.0,8.0,87,0.00,,---,0.00,VWS V14.01,2013-01-03 08:14:00,
2013-01-03 02:19:00,15.0,11.8,29.91,SSW,206,0.0,8.0,87,0.00,,---,0.00,VWS V14.01,2013-01-03 08:19:00,
2013-01-03 02:24:00,15.0,11.8,29.91,WSW,241,4.0,8.0,87,0.00,,---,0.00,VWS V14.01,2013-01-03 08:24:00,
2013-01-03 02:29:00,14.9,11.7,29.92,SW,234,3.0,8.0,87,0.00,,---,0.00,VWS V14.01,2013-01-03 08:29:00,
2013-01-03 02:34:00,14.9,12.0,29.92,SSW,199,2.0,6.0,88,0.00,,---,0.00,VWS V14.01,2013-01-03 08:34:00,
2013-01-03 02:39:00,14.9,12.0,29.92,SW,215,3.0,6.0,88,0.00,,---,0.00,VWS V14.01,2013-01-03 08:39:00,
2013-01-03 02:44:00,14.9,12.0,29.93,SSW,209,2.0,9.0,88,0.00,,---,0.00,VWS V14.01,2013-01-03 08:44:00,
2013-01-03 02:49:00,14.8,11.9,29.92,SW,221,6.0,9.0,88,0.00,,---,0.00,VWS V14.01,2013-01-03 08:49:00,
2013-01-03 02:54:00,14.8,11.9,29.92,SSW,200,8.0,9.0,88,0.00,,---,0.00,VWS V14.01,2013-01-03 08:54:00,
2013-01-03 02:59:00,14.7,11.8,29.92,SW,235,5.0,9.0,88,0.00,,---,0.00,VWS V14.01,2013-01-03 08:59:00,
2013-01-03 03:04:00,14.8,11.9,29.92,WSW,246,5.0,5.0,88,0.00,,---,0.00,VWS V14.01,2013-01-03 09:04:00,
2013-01-03 03:09:00,14.7,11.8,29.92,WSW,240,3.0,8.0,88,0.00,,---,0.00,VWS V14.01,2013-01-03 09:09:00,
2013-01-03 03:15:00,14.7,12.1,29.92,SW,228,2.0,8.0,89,0.00,,---,0.00,VWS V14.01,2013-01-03 09:15:00,
2013-01-03 03:20:00,14.8,12.1,29.92,West,277,5.0,8.0,89,0.00,,---,0.00,VWS V14.01,2013-01-03 09:20:00,
2013-01-03 03:25:00,14.8,12.1,29.92,SW,229,4.0,11.0,89,0.00,,---,0.00,VWS V14.01,2013-01-03 09:25:00,
2013-01-03 03:30:00,14.8,12.1,29.92,WSW,240,3.0,3.0,89,0.00,,---,0.00,VWS V14.01,2013-01-03 09:30:00,
2013-01-03 03:35:00,14.8,12.1,29.92,SW,233,2.0,6.0,89,0.00,,---,0.00,VWS V14.01,2013-01-03 09:35:00,
2013-01-03 03:40:00,14.8,12.1,29.93,WSW,257,2.0,6.0,89,0.00,,---,0.00,VWS V14.01,2013-01-03 09:40:00,
2013-01-03 03:45:00,14.9,12.2,29.93,WSW,237,4.0,6.0,89,0.00,,---,0.00,VWS V14.01,2013-01-03 09:45:00,
2013-01-03 03:50:00,14.9,12.2,29.93,WSW,242,2.0,6.0,89,0.00,,---,0.00,VWS V14.01,2013-01-03 09:50:00,
2013-01-03 03:55:00,15.0,12.4,29.93,SW,226,3.0,7.0,89,0.00,,---,0.00,VWS V14.01,2013-01-03 09:55:00,
2013-01-03 04:00:00,15.0,12.4,29.93,SW,225,4.0,4.0,89,0.00,,---,0.00,VWS V14.01,2013-01-03 10:00:00,
2013-01-03 04:05:00,15.0,12.6,29.93,West,271,5.0,10.0,90,0.00,,---,0.00,VWS V14.01,2013-01-03 10:05:00,
2013-01-03 04:10:00,15.0,12.6,29.93,SW,232,2.0,10.0,90,0.00,,---,0.00,VWS V14.01,2013-01-03 10:10:00,
2013-01-03 04:15:00,15.0,12.6,29.93,WSW,250,2.0,10.0,90,0.00,,---,0.00,VWS V14.01,2013-01-03 10:15:00,
2013-01-03 04:20:00,15.1,12.7,29.92,SW,224,4.0,10.0,90,0.00,,---,0.00,VWS V14.01,2013-01-03 10:20:00,
2013-01-03 04:25:00,15.1,12.7,29.92,WSW,248,3.0,10.0,90,0.00,,---,0.00,VWS V14.01,2013-01-03 10:25:00,
2013-01-03 04:30:00,15.1,12.7,29.92,WSW,253,5.0,6.0,90,0.00,,---,0.00,VWS V14.01,2013-01-03 10:30:00,
2013-01-03 04:35:00,15.2,12.8,29.93,SW,223,2.0,6.0,90,0.00,,---,0.00,VWS V14.01,2013-01-03 10:35:00,
2013-01-03 04:40:00,15.2,13.1,29.93,SW,236,4.0,6.0,91,0.00,,---,0.00,VWS V14.01,2013-01-03 10:40:00,
2013-01-03 04:45:00,15.2,13.1,29.93,WSW,248,6.0,6.0,91,0.00,,---,0.00,VWS V14.01,2013-01-03 10:45:00,
2013-01-03 04:50:00,15.3,12.9,29.94,WNW,296,1.0,6.0,90,0.00,,---,0.00,VWS V14.01,2013-01-03 10:50:00,
2013-01-03 04:55:00,15.4,13.2,29.94,WSW,252,2.0,6.0,91,0.00,,---,0.00,VWS V14.01,2013-01-03 10:55:00,
2013-01-03 05:00:00,15.4,13.2,29.94,WSW,256,1.0,1.0,91,0.00,,---,0.00,VWS V14.01,2013-01-03 11:00:00,
2013-01-03 05:05:00,15.4,13.2,29.94,SW,236,4.0,6.0,91,0.00,,---,0.00,VWS V14.01,2013-01-03 11:05:00,
2013-01-03 05:10:00,15.4,13.2,29.95,WSW,246,2.0,6.0,91,0.00,,---,0.00,VWS V14.01,2013-01-03 11:10:00,
2013-01-03 05:15:00,15.4,13.2,29.95,WNW,294,2.0,6.0,91,0.00,,---,0.00,VWS V14.01,2013-01-03 11:15:00,
2013-01-03 05:20:00,15.5,13.4,29.95,WSW,245,0.0,6.0,91,0.00,,---,0.00,VWS V14.01,2013-01-03 11:20:00,
2013-01-03 05:25:00,15.5,13.4,29.95,WSW,257,4.0,7.0,91,0.00,,---,0.00,VWS V14.01,2013-01-03 11:25:00,
2013-01-03 05:30:00,15.5,13.4,29.95,SW,214,0.0,1.0,91,0.00,,---,0.00,VWS V14.01,2013-01-03 11:30:00,
2013-01-03 05:35:00,15.6,13.4,29.95,WSW,248,3.0,4.0,91,0.00,,---,0.00,VWS V14.01,2013-01-03 11:35:00,
2013-01-03 05:40:00,15.6,13.4,29.95,WSW,254,2.0,7.0,91,0.00,,---,0.00,VWS V14.01,2013-01-03 11:40:00,
2013-01-03 05:45:00,15.7,13.5,29.95,WSW,252,6.0,7.0,91,0.00,,---,0.00,VWS V14.01,2013-01-03 11:45:00,
2013-01-03 05:50:00,15.7,13.5,29.95,WSW,242,4.0,7.0,91,0.00,,---,0.00,VWS V14.01,2013-01-03 11:50:00,
2013-01-03 05:55:00,15.7,13.5,29.96,West,273,1.0,7.0,91,0.00,,---,0.00,VWS V14.01,2013-01-03 11:55:00,
2013-01-03 06:00:00,15.7,13.5,29.96,West,261,2.0,4.0,91,0.00,,---,0.00,VWS V14.01,2013-01-03 12:00:00,
2013-01-03 06:05:00,15.7,13.5,29.96,WSW,245,3.0,4.0,91,0.00,,---,0.00,VWS V14.01,2013-01-03 12:05:00,
2013-01-03 06:10:00,15.8,13.6,29.97,WSW,242,3.0,4.0,91,0.00,,---,0.00,VWS V14.01,2013-01-03 12:10:00,
2013-01-03 06:15:00,15.8,13.6,29.97,SW,227,2.0,6.0,91,0.00,,---,0.00,VWS V14.01,2013-01-03 12:15:00,
2013-01-03 06:20:00,15.9,14.0,29.97,WSW,244,1.0,7.0,92,0.00,,---,0.00,VWS V14.01,2013-01-03 12:20:00,
2013-01-03 06:25:00,16.0,14.1,29.97,West,271,2.0,7.0,92,0.00,,---,0.00,VWS V14.01,2013-01-03 12:25:00,
2013-01-03 06:30:00,16.0,14.1,29.97,SW,232,1.0,3.0,92,0.00,,---,0.00,VWS V14.01,2013-01-03 12:30:00,
2013-01-03 06:35:00,16.0,14.1,29.97,SW,233,3.0,5.0,92,0.00,,---,0.00,VWS V14.01,2013-01-03 12:35:00,
2013-01-03 06:40:00,16.0,14.1,29.97,West,271,5.0,7.0,92,0.00,,---,0.00,VWS V14.01,2013-01-03 12:40:00,
2013-01-03 06:45:00,16.1,14.2,29.98,West,267,2.0,7.0,92,0.00,,---,0.00,VWS V14.01,2013-01-03 12:45:00,
2013-01-03 06:50:00,16.1,14.2,29.98,WSW,251,6.0,7.0,92,0.00,,---,0.00,VWS V14.01,2013-01-03 12:50:00,
2013-01-03 06:55:00,16.1,14.2,29.98,SW,222,6.0,9.0,92,0.00,,---,0.00,VWS V14.01,2013-01-03 12:55:00,
2013-01-03 07:00:00,16.2,14.3,29.98,West,267,2.0,2.0,92,0.00,,---,0.00,VWS V14.01,2013-01-03 13:00:00,
2013-01-03 07:05:00,16.3,14.4,29.98,WNW,282,6.0,8.0,92,0.00,,---,0.00,VWS V14.01,2013-01-03 13:05:00,
2013-01-03 07:10:00,16.3,14.4,29.98,West,264,2.0,8.0,92,0.00,,---,0.00,VWS V14.01,2013-01-03 13:10:00,
2013-01-03 07:15:00,16.3,14.4,29.98,SW,231,1.0,8.0,92,0.00,,---,0.00,VWS V14.01,2013-01-03 13:15:00,
2013-01-03 07:20:00,16.4,14.5,29.98,WNW,290,4.0,8.0,92,0.00,,---,0.00,VWS V14.01,2013-01-03 13:20:00,
2013-01-03 07:25:00,16.4,14.5,29.98,WSW,241,4.0,8.0,92,0.00,,---,0.00,VWS V14.01,2013-01-03 13:25:00,
2013-01-03 07:30:00,16.4,14.5,29.98,SW,222,2.0,2.0,92,0.00,,---,0.00,VWS V14.01,2013-01-03 13:30:00,
2013-01-03 07:35:00,16.5,14.6,29.99,WSW,244,2.0,5.0,92,0.00,,---,0.00,VWS V14.01,2013-01-03 13:35:00,
2013-01-03 07:40:00,16.6,14.7,29.99,WSW,241,4.0,7.0,92,0.00,,---,0.00,VWS V14.01,2013-01-03 13:40:00,
2013-01-03 07:45:00,16.6,14.7,29.99,WSW,244,2.0,7.0,92,0.00,,---,0.00,VWS V14.01,2013-01-03 13:45:00,
2013-01-03 07:50:00,16.7,14.8,29.99,SW,215,3.0,7.0,92,0.00,,---,0.00,VWS V14.01,2013-01-03 13:50:00,
2013-01-03 07:55:00,16.8,14.9,29.99,SW,234,2.0,7.0,92,0.00,,---,0.00,VWS V14.01,2013-01-03 13:55:00,
2013-01-03 08:00:00,16.9,15.0,29.99,West,261,4.0,9.0,92,0.00,,---,0.00,VWS V14.01,2013-01-03 14:00:00,
2013-01-03 08:05:00,17.0,15.1,29.99,South,188,3.0,7.0,92,0.00,,---,0.00,VWS V14.01,2013-01-03 14:05:00,
2013-01-03 08:10:00,17.1,15.2,29.99,WSW,241,1.0,7.0,92,0.00,,---,0.00,VWS V14.01,2013-01-03 14:10:00,
2013-01-03 08:15:00,17.2,15.3,30.00,SW,235,0.0,7.0,92,0.00,,---,0.00,VWS V14.01,2013-01-03 14:15:00,
2013-01-03 08:20:00,17.3,15.4,30.00,SW,228,1.0,7.0,92,0.00,,---,0.00,VWS V14.01,2013-01-03 14:20:00,
2013-01-03 08:25:00,17.4,15.5,30.00,WSW,254,6.0,9.0,92,0.00,,---,0.00,VWS V14.01,2013-01-03 14:25:00,
2013-01-03 08:30:00,17.5,15.6,30.00,WSW,240,2.0,9.0,92,0.00,,---,0.00,VWS V14.01,2013-01-03 14:30:00,
2013-01-03 08:35:00,17.7,15.8,30.00,West,281,3.0,7.0,92,0.00,,---,0.00,VWS V14.01,2013-01-03 14:35:00,
2013-01-03 08:40:00,17.9,16.0,30.01,WSW,238,2.0,8.0,92,0.00,,---,0.00,VWS V14.01,2013-01-03 14:40:00,
2013-01-03 08:45:00,18.0,16.1,30.01,WSW,249,2.0,8.0,92,0.00,,---,0.00,VWS V14.01,2013-01-03 14:45:00,
2013-01-03 08:50:00,18.1,16.2,30.01,West,263,4.0,9.0,92,0.00,,---,0.00,VWS V14.01,2013-01-03 14:50:00,
2013-01-03 08:55:00,18.2,16.3,30.01,WSW,244,5.0,10.0,92,0.00,,---,0.00,VWS V14.01,2013-01-03 14:55:00,
2013-01-03 09:00:00,18.3,16.4,30.01,WSW,246,1.0,12.0,92,0.00,,---,0.00,VWS V14.01,2013-01-03 15:00:00,
2013-01-03 09:05:00,18.5,16.6,30.01,SW,227,2.0,7.0,92,0.00,,---,0.00,VWS V14.01,2013-01-03 15:05:00,
2013-01-03 09:10:00,18.6,16.7,30.02,WSW,248,3.0,9.0,92,0.00,,---,0.00,VWS V14.01,2013-01-03 15:10:00,
2013-01-03 09:15:00,18.8,16.9,30.02,SSW,204,10.0,11.0,92,0.00,,---,0.00,VWS V14.01,2013-01-03 15:15:00,
2013-01-03 09:20:00,18.9,17.0,30.02,WSW,241,3.0,11.0,92,0.00,,---,0.00,VWS V14.01,2013-01-03 15:20:00,
2013-01-03 09:25:00,19.0,17.1,30.02,SW,236,5.0,11.0,92,0.00,,---,0.00,VWS V14.01,2013-01-03 15:25:00,
2013-01-03 09:30:00,19.2,17.3,30.02,WNW,297,5.0,12.0,92,0.00,,---,0.00,VWS V14.01,2013-01-03 15:30:00,
2013-01-03 09:35:00,19.3,17.1,30.02,WSW,248,6.0,11.0,91,0.00,,---,0.00,VWS V14.01,2013-01-03 15:35:00,
2013-01-03 09:40:00,19.4,17.2,30.02,WSW,249,5.0,11.0,91,0.00,,---,0.00,VWS V14.01,2013-01-03 15:40:00,
2013-01-03 09:45:00,19.5,17.3,30.03,WSW,242,7.0,11.0,91,0.00,,---,0.00,VWS V14.01,2013-01-03 15:45:00,
2013-01-03 09:50:00,19.7,17.5,30.03,West,274,4.0,12.0,91,0.00,,---,0.00,VWS V14.01,2013-01-03 15:50:00,
2013-01-03 09:55:00,19.7,17.2,30.03,West,263,1.0,14.0,90,0.00,,---,0.00,VWS V14.01,2013-01-03 15:55:00,
2013-01-03 10:00:00,19.7,17.2,30.03,WSW,251,4.0,14.0,90,0.00,,---,0.00,VWS V14.01,2013-01-03 16:00:00,
2013-01-03 10:05:00,19.8,17.4,30.03,SW,217,12.0,12.0,90,0.00,,---,0.00,VWS V14.01,2013-01-03 16:05:00,
2013-01-03 10:10:00,19.8,17.4,30.04,WSW,257,3.0,12.0,90,0.00,,---,0.00,VWS V14.01,2013-01-03 16:10:00,
2013-01-03 10:15:00,20.0,17.5,30.04,WSW,247,4.0,12.0,90,0.00,,---,0.00,VWS V14.01,2013-01-03 16:15:00,
2013-01-03 10:20:00,20.1,17.6,30.03,WSW,257,2.0,12.0,90,0.00,,---,0.00,VWS V14.01,2013-01-03 16:20:00,
2013-01-03 10:25:00,20.3,17.6,30.03,SW,220,6.0,12.0,89,0.00,,---,0.00,VWS V14.01,2013-01-03 16:25:00,
2013-01-03 10:30:00,20.2,17.5,30.03,SW,232,9.0,14.0,89,0.00,,---,0.00,VWS V14.01,2013-01-03 16:30:00,
2013-01-03 10:35:00,20.2,17.5,30.03,SSW,209,5.0,13.0,89,0.00,,---,0.00,VWS V14.01,2013-01-03 16:35:00,
2013-01-03 10:40:00,20.2,17.5,30.03,South,182,3.0,13.0,89,0.00,,---,0.00,VWS V14.01,2013-01-03 16:40:00,
2013-01-03 10:45:00,20.2,17.5,30.03,WSW,250,3.0,13.0,89,0.00,,---,0.00,VWS V14.01,2013-01-03 16:45:00,
2013-01-03 10:50:00,20.2,17.5,30.03,SW,215,5.0,13.0,89,0.00,,---,0.00,VWS V14.01,2013-01-03 16:50:00,
2013-01-03 10:55:00,20.1,17.4,30.03,WSW,250,9.0,13.0,89,0.00,,---,0.00,VWS V14.01,2013-01-03 16:55:00,
2013-01-03 11:00:00,19.9,17.2,30.03,SW,234,15.0,15.0,89,0.00,,---,0.00,VWS V14.01,2013-01-03 17:00:00,
2013-01-03 11:05:00,19.8,17.1,30.03,SW,231,3.0,15.0,89,0.00,,---,0.00,VWS V14.01,2013-01-03 17:05:00,
2013-01-03 11:10:00,19.8,17.1,30.03,WSW,237,3.0,15.0,89,0.00,,---,0.00,VWS V14.01,2013-01-03 17:10:00,
2013-01-03 11:15:00,19.7,17.0,30.03,West,261,3.0,15.0,89,0.00,,---,0.00,VWS V14.01,2013-01-03 17:15:00,
2013-01-03 11:20:00,19.8,17.1,30.03,SW,226,7.0,15.0,89,0.00,,---,0.00,VWS V14.01,2013-01-03 17:20:00,
2013-01-03 11:25:00,19.7,17.0,30.03,SW,222,6.0,15.0,89,0.00,,---,0.00,VWS V14.01,2013-01-03 17:25:00,
2013-01-03 11:30:00,19.7,17.0,30.03,South,184,5.0,15.0,89,0.00,,---,0.00,VWS V14.01,2013-01-03 17:30:00,
2013-01-03 11:35:00,19.6,16.9,30.03,SW,229,6.0,13.0,89,0.00,,---,0.00,VWS V14.01,2013-01-03 17:35:00,
2013-01-03 11:40:00,19.4,16.4,30.03,SSW,209,5.0,16.0,88,0.00,,---,0.00,VWS V14.01,2013-01-03 17:40:00,
2013-01-03 11:45:00,19.4,16.7,30.03,West,260,7.0,16.0,89,0.00,,---,0.00,VWS V14.01,2013-01-03 17:45:00,
2013-01-03 11:50:00,19.3,16.3,30.02,SW,229,11.0,16.0,88,0.00,,---,0.00,VWS V14.01,2013-01-03 17:50:00,
2013-01-03 11:55:00,19.2,16.2,30.02,West,275,4.0,16.0,88,0.00,,---,0.00,VWS V14.01,2013-01-03 17:55:00,
2013-01-03 12:00:00,19.2,16.2,30.02,West,265,6.0,16.0,88,0.00,,---,0.00,VWS V14.01,2013-01-03 18:00:00,
2013-01-03 12:05:00,19.1,16.1,30.02,West,259,6.0,10.0,88,0.00,,---,0.00,VWS V14.01,2013-01-03 18:05:00,
2013-01-03 12:10:00,19.1,16.1,30.02,SW,216,5.0,13.0,88,0.00,,---,0.00,VWS V14.01,2013-01-03 18:10:00,
2013-01-03 12:15:00,19.1,16.1,30.02,SW,218,4.0,13.0,88,0.00,,---,0.00,VWS V14.01,2013-01-03 18:15:00,
2013-01-03 12:20:00,19.1,15.9,30.02,WSW,238,10.0,13.0,87,0.00,,---,0.00,VWS V14.01,2013-01-03 18:20:00,
2013-01-03 12:25:00,18.8,15.8,30.02,WSW,249,7.0,15.0,88,0.00,,---,0.00,VWS V14.01,2013-01-03 18:25:00,
2013-01-03 12:29:00,18.6,15.4,30.02,West,262,9.0,15.0,87,0.00,,---,0.00,VWS V14.01,2013-01-03 18:29:00,
2013-01-03 12:35:00,18.5,15.6,30.02,SW,234,4.0,15.0,88,0.00,,---,0.00,VWS V14.01,2013-01-03 18:35:00,
2013-01-03 12:39:00,18.5,15.6,30.02,SW,224,4.0,15.0,88,0.00,,---,0.00,VWS V14.01,2013-01-03 18:39:00,
2013-01-03 12:44:00,18.5,15.6,30.02,South,172,7.0,15.0,88,0.00,,---,0.00,VWS V14.01,2013-01-03 18:44:00,
2013-01-03 12:49:00,18.2,15.0,30.02,SW,231,8.0,15.0,87,0.00,,---,0.00,VWS V14.01,2013-01-03 18:49:00,
2013-01-03 12:55:00,18.2,15.0,30.02,SW,229,18.0,19.0,87,0.00,,---,0.00,VWS V14.01,2013-01-03 18:55:00,
2013-01-03 13:00:00,17.8,14.6,30.02,SW,225,9.0,13.0,87,0.00,,---,0.00,VWS V14.01,2013-01-03 19:00:00,
2013-01-03 13:05:00,17.7,14.5,30.02,WSW,254,2.0,16.0,87,0.00,,---,0.00,VWS V14.01,2013-01-03 19:05:00,
2013-01-03 13:10:00,17.7,14.5,30.02,SSW,201,9.0,19.0,87,0.00,,---,0.00,VWS V14.01,2013-01-03 19:10:00,
2013-01-03 13:15:00,17.5,14.3,30.02,West,261,14.0,19.0,87,0.00,,---,0.00,VWS V14.01,2013-01-03 19:15:00,
2013-01-03 13:52:00,17.0,13.5,30.03,WNW,289,7.0,17.0,86,0.00,,---,0.00,VWS V14.01,2013-01-03 19:52:00,
2013-01-03 13:57:00,16.9,13.7,30.03,West,270,5.0,17.0,87,0.00,,---,0.00,VWS V14.01,2013-01-03 19:57:00,
2013-01-03 14:02:00,17.0,13.8,30.03,SW,236,6.0,10.0,87,0.00,,---,0.00,VWS V14.01,2013-01-03 20:02:00,
2013-01-03 14:07:00,17.0,13.8,30.03,WSW,248,8.0,13.0,87,0.00,,---,0.00,VWS V14.01,2013-01-03 20:07:00,
2013-01-03 14:12:00,17.0,13.5,30.03,SW,222,4.0,13.0,86,0.00,,---,0.00,VWS V14.01,2013-01-03 20:12:00,
2013-01-03 14:17:00,17.0,13.5,30.03,WSW,240,4.0,13.0,86,0.00,,---,0.00,VWS V14.01,2013-01-03 20:17:00,
2013-01-03 14:22:00,17.0,13.8,30.03,SW,227,5.0,14.0,87,0.00,,---,0.00,VWS V14.01,2013-01-03 20:22:00,
2013-01-03 14:27:00,17.0,13.5,30.03,SW,223,3.0,14.0,86,0.00,,---,0.00,VWS V14.01,2013-01-03 20:27:00,
2013-01-03 14:32:00,17.1,13.9,30.03,SSW,193,6.0,12.0,87,0.00,,---,0.00,VWS V14.01,2013-01-03 20:32:00,
2013-01-03 14:37:00,17.2,13.7,30.03,SW,228,3.0,12.0,86,0.00,,---,0.00,VWS V14.01,2013-01-03 20:37:00,
2013-01-03 14:42:00,17.0,13.3,30.03,SW,222,6.0,12.0,85,0.00,,---,0.00,VWS V14.01,2013-01-03 20:42:00,
2013-01-03 14:47:00,16.9,13.4,30.03,WSW,238,2.0,14.0,86,0.00,,---,0.00,VWS V14.01,2013-01-03 20:47:00,
2013-01-03 14:52:00,17.0,13.5,30.03,SSW,202,15.0,15.0,86,0.00,,---,0.00,VWS V14.01,2013-01-03 20:52:00,
2013-01-03 14:57:00,17.1,13.4,30.03,SSW,199,2.0,15.0,85,0.00,,---,0.00,VWS V14.01,2013-01-03 20:57:00,
2013-01-03 15:02:00,17.0,13.3,30.04,SW,226,9.0,16.0,85,0.00,,---,0.00,VWS V14.01,2013-01-03 21:02:00,
2013-01-03 15:07:00,16.9,13.2,30.04,SW,229,4.0,16.0,85,0.00,,---,0.00,VWS V14.01,2013-01-03 21:07:00,
2013-01-03 15:12:00,16.8,13.1,30.04,SW,236,9.0,16.0,85,0.00,,---,0.00,VWS V14.01,2013-01-03 21:12:00,
2013-01-03 15:17:00,16.8,13.1,30.04,SSW,193,7.0,16.0,85,0.00,,---,0.00,VWS V14.01,2013-01-03 21:17:00,
2013-01-03 15:22:00,16.7,13.0,30.04,SW,231,3.0,16.0,85,0.00,,---,0.00,VWS V14.01,2013-01-03 21:22:00,
2013-01-03 15:27:00,16.5,12.8,30.04,SSW,211,6.0,18.0,85,0.00,,---,0.00,VWS V14.01,2013-01-03 21:27:00,
2013-01-03 15:32:00,16.4,12.7,30.04,WSW,251,2.0,7.0,85,0.00,,---,0.00,VWS V14.01,2013-01-03 21:32:00,
2013-01-03 15:37:00,16.4,12.7,30.04,West,271,5.0,11.0,85,0.00,,---,0.00,VWS V14.01,2013-01-03 21:37:00,
2013-01-03 15:42:00,16.4,12.7,30.04,WSW,240,4.0,11.0,85,0.00,,---,0.00,VWS V14.01,2013-01-03 21:42:00,
2013-01-03 15:47:00,16.4,12.7,30.04,SW,236,9.0,11.0,85,0.00,,---,0.00,VWS V14.01,2013-01-03 21:47:00,
2013-01-03 15:52:00,16.4,12.7,30.05,SSW,212,9.0,12.0,85,0.00,,---,0.00,VWS V14.01,2013-01-03 21:52:00,
2013-01-03 15:57:00,16.2,12.2,30.05,West,259,9.0,12.0,84,0.00,,---,0.00,VWS V14.01,2013-01-03 21:57:00,
2013-01-03 16:02:00,16.1,12.1,30.05,WSW,252,12.0,12.0,84,0.00,,---,0.00,VWS V14.01,2013-01-03 22:02:00,
2013-01-03 16:07:00,16.1,12.4,30.04,WSW,242,7.0,12.0,85,0.00,,---,0.00,VWS V14.01,2013-01-03 22:07:00,
2013-01-03 16:12:00,16.1,12.1,30.04,SW,230,5.0,15.0,84,0.00,,---,0.00,VWS V14.01,2013-01-03 22:12:00,
2013-01-03 16:17:00,16.1,12.1,30.04,SSW,211,4.0,15.0,84,0.00,,---,0.00,VWS V14.01,2013-01-03 22:17:00,
2013-01-03 16:24:00,16.0,12.0,30.04,SSW,211,10.0,15.0,84,0.00,,---,0.00,VWS V14.01,2013-01-03 22:24:00,
2013-01-03 16:29:00,15.9,11.9,30.04,SSW,207,4.0,15.0,84,0.00,,---,0.00,VWS V14.01,2013-01-03 22:29:00,
2013-01-03 16:34:00,15.7,11.7,30.04,South,174,3.0,12.0,84,0.00,,---,0.00,VWS V14.01,2013-01-03 22:34:00,
2013-01-03 16:39:00,15.5,11.5,30.05,SW,220,4.0,12.0,84,0.00,,---,0.00,VWS V14.01,2013-01-03 22:39:00,
2013-01-03 16:44:00,15.4,11.4,30.05,SW,218,5.0,12.0,84,0.00,,---,0.00,VWS V14.01,2013-01-03 22:44:00,
2013-01-03 16:49:00,15.2,11.2,30.05,SSE,163,0.0,13.0,84,0.00,,---,0.00,VWS V14.01,2013-01-03 22:49:00,
2013-01-03 16:54:00,15.1,11.1,30.05,SW,236,6.0,13.0,84,0.00,,---,0.00,VWS V14.01,2013-01-03 22:54:00,
2013-01-03 16:59:00,14.9,10.9,30.05,SSW,211,2.0,13.0,84,0.00,,---,0.00,VWS V14.01,2013-01-03 22:59:00,
2013-01-03 17:04:00,14.8,11.1,30.05,SSW,205,4.0,10.0,85,0.00,,---,0.00,VWS V14.01,2013-01-03 23:04:00,
2013-01-03 17:09:00,14.5,10.8,30.05,SSW,200,2.0,10.0,85,0.00,,---,0.00,VWS V14.01,2013-01-03 23:09:00,
2013-01-03 17:14:00,14.4,10.7,30.05,SSW,194,3.0,10.0,85,0.00,,---,0.00,VWS V14.01,2013-01-03 23:14:00,
2013-01-03 17:19:00,14.2,10.5,30.05,South,191,2.0,10.0,85,0.00,,---,0.00,VWS V14.01,2013-01-03 23:19:00,
2013-01-03 17:24:00,13.9,10.5,30.05,SW,215,3.0,10.0,86,0.00,,---,0.00,VWS V14.01,2013-01-03 23:24:00,
2013-01-03 17:29:00,13.7,10.3,30.06,SSW,210,1.0,10.0,86,0.00,,---,0.00,VWS V14.01,2013-01-03 23:29:00,
2013-01-03 17:34:00,13.6,10.2,30.05,SSW,208,5.0,6.0,86,0.00,,---,0.00,VWS V14.01,2013-01-03 23:34:00,
2013-01-03 17:39:00,13.6,10.5,30.05,SW,214,2.0,7.0,87,0.00,,---,0.00,VWS V14.01,2013-01-03 23:39:00,
2013-01-03 17:44:00,13.4,10.3,30.05,South,191,2.0,7.0,87,0.00,,---,0.00,VWS V14.01,2013-01-03 23:44:00,
2013-01-03 17:49:00,13.2,10.1,30.05,SSW,194,2.0,7.0,87,0.00,,---,0.00,VWS V14.01,2013-01-03 23:49:00,
2013-01-03 17:54:00,13.0,9.9,30.06,SSW,194,1.0,7.0,87,0.00,,---,0.00,VWS V14.01,2013-01-03 23:54:00,
2013-01-03 17:59:00,12.8,9.7,30.05,SSW,195,2.0,7.0,87,0.00,,---,0.00,VWS V14.01,2013-01-03 23:59:00,
2013-01-03 18:04:00,12.6,9.7,30.05,SSW,205,3.0,4.0,88,0.00,,---,0.00,VWS V14.01,2013-01-04 00:04:00,
2013-01-03 18:09:00,12.4,9.5,30.06,SSW,213,2.0,5.0,88,0.00,,---,0.00,VWS V14.01,2013-01-04 00:09:00,
2013-01-03 18:14:00,12.4,9.5,30.07,SSW,194,5.0,7.0,88,0.00,,---,0.00,VWS V14.01,2013-01-04 00:14:00,
2013-01-03 18:19:00,12.2,9.3,30.05,South,180,2.0,7.0,88,0.00,,---,0.00,VWS V14.01,2013-01-04 00:19:00,
2013-01-03 18:24:00,12.0,9.1,30.05,SSW,197,4.0,7.0,88,0.00,,---,0.00,VWS V14.01,2013-01-04 00:24:00,
2013-01-03 18:29:00,11.8,9.2,30.05,South,178,3.0,9.0,89,0.00,,---,0.00,VWS V14.01,2013-01-04 00:29:00,
2013-01-03 18:34:00,11.7,8.8,30.05,South,180,3.0,11.0,88,0.00,,---,0.00,VWS V14.01,2013-01-04 00:34:00,
2013-01-03 18:39:00,11.6,8.7,30.05,South,184,6.0,11.0,88,0.00,,---,0.00,VWS V14.01,2013-01-04 00:39:00,
2013-01-03 18:44:00,11.4,8.5,30.05,SSW,192,5.0,11.0,88,0.00,,---,0.00,VWS V14.01,2013-01-04 00:44:00,
2013-01-03 18:49:00,11.3,8.4,30.05,South,191,3.0,11.0,88,0.00,,---,0.00,VWS V14.01,2013-01-04 00:49:00,
2013-01-03 18:54:00,11.2,8.1,30.05,SW,218,7.0,16.0,87,0.00,,---,0.00,VWS V14.01,2013-01-04 00:54:00,
2013-01-03 18:59:00,11.0,7.9,30.05,SSW,202,5.0,16.0,87,0.00,,---,0.00,VWS V14.01,2013-01-04 00:59:00,
2013-01-03 19:04:00,11.0,7.9,30.05,SSW,197,9.0,13.0,87,0.00,,---,0.00,VWS V14.01,2013-01-04 01:04:00,
2013-01-03 19:09:00,10.9,7.8,30.05,SSW,195,2.0,13.0,87,0.00,,---,0.00,VWS V14.01,2013-01-04 01:09:00,
2013-01-03 19:14:00,10.7,7.6,30.05,South,190,3.0,13.0,87,0.00,,---,0.00,VWS V14.01,2013-01-04 01:14:00,
2013-01-03 19:19:00,10.5,7.4,30.05,SSW,195,1.0,13.0,87,0.00,,---,0.00,VWS V14.01,2013-01-04 01:19:00,
2013-01-03 19:24:00,10.4,7.3,30.05,SSW,194,6.0,13.0,87,0.00,,---,0.00,VWS V14.01,2013-01-04 01:24:00,
2013-01-03 19:29:00,10.2,7.1,30.05,South,184,4.0,13.0,87,0.00,,---,0.00,VWS V14.01,2013-01-04 01:29:00,
2013-01-03 19:34:00,10.0,6.9,30.05,SSW,207,5.0,11.0,87,0.00,,---,0.00,VWS V14.01,2013-01-04 01:34:00,
2013-01-03 19:39:00,9.9,6.6,30.05,SW,230,13.0,15.0,86,0.00,,---,0.00,VWS V14.01,2013-01-04 01:39:00,
2013-01-03 19:44:00,9.9,6.6,30.05,SSW,206,3.0,15.0,86,0.00,,---,0.00,VWS V14.01,2013-01-04 01:44:00,
2013-01-03 19:49:00,9.7,6.6,30.04,South,180,2.0,15.0,87,0.00,,---,0.00,VWS V14.01,2013-01-04 01:49:00,
2013-01-03 19:54:00,9.6,6.3,30.04,South,182,4.0,16.0,86,0.00,,---,0.00,VWS V14.01,2013-01-04 01:54:00,
2013-01-03 19:59:00,9.4,6.1,30.04,SSW,203,12.0,16.0,86,0.00,,---,0.00,VWS V14.01,2013-01-04 01:59:00,
2013-01-03 20:04:00,9.3,6.0,30.04,SSW,209,7.0,12.0,86,0.00,,---,0.00,VWS V14.01,2013-01-04 02:04:00,
2013-01-03 20:09:00,9.1,5.8,30.04,SSW,207,13.0,13.0,86,0.00,,---,0.00,VWS V14.01,2013-01-04 02:09:00,
2013-01-03 20:14:00,9.0,5.7,30.04,SSW,199,13.0,16.0,86,0.00,,---,0.00,VWS V14.01,2013-01-04 02:14:00,
2013-01-03 20:19:00,8.9,5.6,30.03,SSW,211,12.0,16.0,86,0.00,,---,0.00,VWS V14.01,2013-01-04 02:19:00,
2013-01-03 20:24:00,8.8,5.5,30.04,South,169,3.0,16.0,86,0.00,,---,0.00,VWS V14.01,2013-01-04 02:24:00,
2013-01-03 20:29:00,8.6,5.3,30.04,SSW,208,2.0,16.0,86,0.00,,---,0.00,VWS V14.01,2013-01-04 02:29:00,
2013-01-03 20:34:00,8.5,5.2,30.04,SW,217,7.0,12.0,86,0.00,,---,0.00,VWS V14.01,2013-01-04 02:34:00,
2013-01-03 20:39:00,8.4,5.1,30.04,South,188,1.0,17.0,86,0.00,,---,0.00,VWS V14.01,2013-01-04 02:39:00,
2013-01-03 20:44:00,8.2,4.9,30.03,South,191,1.0,17.0,86,0.00,,---,0.00,VWS V14.01,2013-01-04 02:44:00,
2013-01-03 20:49:00,8.0,4.7,30.03,SSW,194,10.0,17.0,86,0.00,,---,0.00,VWS V14.01,2013-01-04 02:49:00,
2013-01-03 20:54:00,7.8,4.5,30.02,SSW,210,6.0,17.0,86,0.00,,---,0.00,VWS V14.01,2013-01-04 02:54:00,
2013-01-03 20:59:00,7.7,4.4,30.02,SSW,198,7.0,17.0,86,0.00,,---,0.00,VWS V14.01,2013-01-04 02:59:00,
2013-01-03 21:04:00,7.5,4.2,30.02,SSW,213,5.0,12.0,86,0.00,,---,0.00,VWS V14.01,2013-01-04 03:04:00,
2013-01-03 21:09:00,7.4,4.3,30.02,South,182,2.0,14.0,87,0.00,,---,0.00,VWS V14.01,2013-01-04 03:09:00,
2013-01-03 21:14:00,7.2,4.2,30.02,SW,216,6.0,14.0,87,0.00,,---,0.00,VWS V14.01,2013-01-04 03:14:00,
2013-01-03 21:19:00,7.1,3.8,30.01,SSW,192,5.0,14.0,86,0.00,,---,0.00,VWS V14.01,2013-01-04 03:19:00,
2013-01-03 21:24:00,6.9,3.9,30.01,South,190,3.0,14.0,87,0.00,,---,0.00,VWS V14.01,2013-01-04 03:24:00,
2013-01-03 21:29:00,6.7,3.7,30.01,South,177,5.0,14.0,87,0.00,,---,0.00,VWS V14.01,2013-01-04 03:29:00,
2013-01-03 21:34:00,6.6,3.6,30.02,South,180,1.0,10.0,87,0.00,,---,0.00,VWS V14.01,2013-01-04 03:34:00,
2013-01-03 21:39:00,6.5,3.5,30.02,South,184,2.0,10.0,87,0.00,,---,0.00,VWS V14.01,2013-01-04 03:39:00,
2013-01-03 21:44:00,6.4,3.4,30.02,South,188,3.0,10.0,87,0.00,,---,0.00,VWS V14.01,2013-01-04 03:44:00,
2013-01-03 21:49:00,6.3,3.3,30.03,South,188,2.0,10.0,87,0.00,,---,0.00,VWS V14.01,2013-01-04 03:49:00,
2013-01-03 21:54:00,6.3,3.3,30.02,South,186,2.0,10.0,87,0.00,,---,0.00,VWS V14.01,2013-01-04 03:54:00,
2013-01-03 21:59:00,6.2,3.2,30.03,SSW,200,2.0,10.0,87,0.00,,---,0.00,VWS V14.01,2013-01-04 03:59:00,
2013-01-03 22:04:00,6.1,3.1,30.02,South,184,1.0,8.0,87,0.00,,---,0.00,VWS V14.01,2013-01-04 04:04:00,
2013-01-03 22:08:00,5.9,2.9,30.02,South,191,5.0,8.0,87,0.00,,---,0.00,VWS V14.01,2013-01-04 04:08:00,
2013-01-03 22:14:00,5.8,2.8,30.02,South,178,6.0,8.0,87,0.00,,---,0.00,VWS V14.01,2013-01-04 04:14:00,
2013-01-03 22:18:00,5.7,2.9,30.02,South,183,2.0,8.0,88,0.00,,---,0.00,VWS V14.01,2013-01-04 04:18:00,
2013-01-03 22:23:00,5.5,2.7,30.02,SSE,167,1.0,8.0,88,0.00,,---,0.00,VWS V14.01,2013-01-04 04:23:00,
2013-01-03 22:28:00,5.5,2.7,30.02,SW,228,3.0,8.0,88,0.00,,---,0.00,VWS V14.01,2013-01-04 04:28:00,
2013-01-03 22:33:00,5.3,2.5,30.02,South,171,1.0,7.0,88,0.00,,---,0.00,VWS V14.01,2013-01-04 04:33:00,
2013-01-03 22:38:00,5.2,2.7,30.02,South,177,3.0,7.0,89,0.00,,---,0.00,VWS V14.01,2013-01-04 04:38:00,
2013-01-03 22:43:00,5.1,2.6,30.01,South,169,3.0,7.0,89,0.00,,---,0.00,VWS V14.01,2013-01-04 04:43:00,
2013-01-03 22:48:00,5.1,2.6,30.01,South,183,1.0,8.0,89,0.00,,---,0.00,VWS V14.01,2013-01-04 04:48:00,
2013-01-03 22:53:00,5.1,2.6,30.01,South,175,4.0,8.0,89,0.00,,---,0.00,VWS V14.01,2013-01-04 04:53:00,
2013-01-03 22:58:00,5.1,2.6,30.01,South,190,5.0,8.0,89,0.00,,---,0.00,VWS V14.01,2013-01-04 04:58:00,
2013-01-03 23:00:00,5.0,2.5,30.01,SSE,154,3.0,8.0,89,0.00,,---,0.00,VWS V14.01,2013-01-04 05:00:00,
2013-01-03 23:01:00,5.0,2.5,30.01,SSE,152,2.0,10.0,89,0.00,,---,0.00,VWS V14.01,2013-01-04 05:01:00,
2013-01-03 23:06:00,5.0,5.0,30.00,South,187,3.0,10.0,100,0.00,,---,0.00,VWS V14.01,2013-01-04 05:06:00,
2013-01-03 23:13:00,5.0,2.5,30.00,South,178,2.0,10.0,89,0.00,,---,0.00,VWS V14.01,2013-01-04 05:13:00,
2013-01-03 23:18:00,5.1,2.8,30.00,South,175,4.0,10.0,90,0.00,,---,0.00,VWS V14.01,2013-01-04 05:18:00,
2013-01-03 23:23:00,5.1,2.8,29.99,South,184,3.0,11.0,90,0.00,,---,0.00,VWS V14.01,2013-01-04 05:23:00,
2013-01-03 23:28:00,5.1,2.8,29.99,South,177,2.0,11.0,90,0.00,,---,0.00,VWS V14.01,2013-01-04 05:28:00,
2013-01-03 23:33:00,5.2,2.9,29.98,South,183,5.0,11.0,90,0.00,,---,0.00,VWS V14.01,2013-01-04 05:33:00,
2013-01-03 23:38:00,5.3,3.0,29.98,SSW,207,5.0,13.0,90,0.00,,---,0.00,VWS V14.01,2013-01-04 05:38:00,
2013-01-03 23:43:00,5.4,3.1,29.98,South,180,4.0,13.0,90,0.00,,---,0.00,VWS V14.01,2013-01-04 05:43:00,
2013-01-03 23:48:00,5.5,3.2,29.98,South,180,11.0,13.0,90,0.00,,---,0.00,VWS V14.01,2013-01-04 05:48:00,
2013-01-03 23:53:00,5.7,3.4,29.97,South,175,5.0,15.0,90,0.00,,---,0.00,VWS V14.01,2013-01-04 05:53:00,
2013-01-03 23:58:00,5.8,3.5,29.97,South,189,5.0,15.0,90,0.00,,---,0.00,VWS V14.01,2013-01-04 05:58:00,